Date,TemperatureHighF,TemperatureAvgF,TemperatureLowF,DewpointHighF,DewpointAvgF,DewpointLowF,HumidityHigh,HumidityAvg,HumidityLow,PressureMaxIn,PressureMinIn,WindSpeedMaxMPH,WindSpeedAvgMPH,GustSpeedMaxMPH,PrecipitationSumIn
2013-4-1,52,37,27,40,30,9,95,77,39,29.73,29.47,18,5,30,0.43
2013-4-2,30,26,22,18,11,8,69,53,43,29.86,29.72,24,7,33,0.00
2013-4-3,38,29,22,17,10,6,72,47,28,30.12,29.86,19,8,31,0.00
2013-4-4,49,36,24,21,15,11,65,44,25,30.25,29.96,14,5,24,0.00
2013-4-5,51,39,30,26,23,19,74,54,32,29.96,29.66,18,6,22,0.00
2013-4-6,38,30,21,19,8,3,65,42,25,30.30,29.85,24,7,30,0.00
2013-4-7,52,39,28,36,19,5,83,46,32,30.29,29.93,24,7,34,0.00
2013-4-8,58,47,39,37,33,28,90,62,34,30.05,29.91,15,4,20,0.00
2013-4-9,59,48,39,47,39,34,95,74,51,30.02,29.85,18,3,25,0.22
2013-4-10,53,46,41,46,42,37,95,86,72,29.96,29.83,6,1,10,0.70
2013-4-11,42,37,33,40,30,19,95,76,51,30.12,29.83,14,4,18,0.05
2013-4-12,35,29,27,28,26,19,100,88,53,30.16,29.83,15,5,21,0.00
2013-4-13,48,36,29,39,32,28,96,84,54,29.92,29.78,10,1,17,0.55
2013-4-14,44,38,34,33,29,25,90,71,51,30.19,29.88,13,4,24,0.00
2013-4-15,55,43,32,34,30,26,79,62,42,30.35,30.19,10,2,17,0.00
2013-4-16,61,48,36,50,39,28,92,73,53,30.34,30.00,22,8,43,0.03
2013-4-17,57,49,42,50,33,26,93,55,34,30.30,30.01,18,6,24,0.02
2013-4-18,58,48,38,39,29,24,69,48,39,30.39,30.08,17,5,26,0.00
2013-4-19,67,58,48,59,53,39,95,83,69,30.08,29.54,32,10,36,0.16
2013-4-20,58,44,33,55,32,18,93,67,41,30.19,29.57,29,6,29,0.26
2013-4-21,46,37,29,19,16,14,62,45,28,30.65,30.18,14,6,22,0.00
2013-4-22,48,38,32,29,21,15,86,52,33,30.73,30.58,15,5,23,0.00
2013-4-23,36,33,29,35,30,26,95,92,85,30.58,30.15,10,4,17,0.02
2013-4-24,71,54,36,49,41,34,96,68,26,30.15,29.73,17,5,26,0.01
2013-4-25,56,49,42,47,31,19,90,52,30,30.25,29.72,16,6,27,0.00
2013-4-26,55,47,40,35,28,21,60,48,38,30.39,30.25,14,2,16,0.00
2013-4-27,63,51,39,37,31,26,73,49,26,30.39,30.24,6,1,11,0.00
2013-4-28,66,54,40,40,35,31,70,50,34,30.28,30.14,11,2,15,0.00
2013-4-29,65,54,44,43,36,26,62,50,36,30.20,30.12,15,3,18,0.00
2013-4-30,67,57,48,36,29,23,46,34,26,30.31,30.19,9,1,14,0.00